• In Belarus
  • List of Countries
  • For 7 days
  • Water Temperature
  • Weather Map
  • Weather Widgets
  • user-avatar
    Login

    Hourly Weather Novye Goryany

    Today, 21 September, Saturday

    Time Temperature Precipitation Wind Pressure Humidity
    00:00 +2°C° 0 mm 2 mps 752 mmHg 86%
    01:00 +2°C° 0 mm 2 mps 752 mmHg 87%
    02:00 +2°C° 0 mm 2 mps 752 mmHg 89%
    03:00 +2°C° 0 mm 2 mps 752 mmHg 89%
    04:00 +2°C° 0 mm 2 mps 752 mmHg 90%
    05:00 +3°C° 0 mm 2 mps 751 mmHg 90%
    06:00 +3°C° 0 mm 3 mps 751 mmHg 87%
    07:00 +4°C° 0 mm 3 mps 751 mmHg 83%
    08:00 +5°C° 0 mm 4 mps 750 mmHg 79%
    09:00 +5°C° 0.1 mm 4 mps 750 mmHg 79%
    10:00 +6°C° 0.1 mm 5 mps 749 mmHg 80%
    11:00 +6°C° 0.1 mm 5 mps 749 mmHg 80%
    12:00 +6°C° 0.5 mm 5 mps 748 mmHg 85%
    13:00 +6°C° 0.5 mm 5 mps 748 mmHg 90%
    14:00 +5°C° 0.5 mm 4 mps 747 mmHg 94%
    15:00 +6°C° 0.5 mm 4 mps 746 mmHg 95%
    16:00 +7°C° 0.5 mm 4 mps 746 mmHg 96%
    17:00 +8°C° 0.5 mm 4 mps 745 mmHg 97%
    18:00 +10°C° 0.4 mm 4 mps 745 mmHg 96%
    19:00 +9°C° 0.4 mm 5 mps 745 mmHg 96%
    20:00 +10°C° 0.4 mm 5 mps 744 mmHg 95%
    21:00 +10°C° 0.2 mm 5 mps 744 mmHg 94%
    22:00 +10°C° 0.2 mm 5 mps 744 mmHg 93%
    23:00 +10°C° 0.2 mm 6 mps 744 mmHg 92%

    Tomorrow, 22 September, Sunday

    Time Temperature Precipitation Wind Pressure Humidity
    00:00 +10°C° 0.1 mm 6 mps 744 mmHg 91%
    01:00 +10°C° 0.1 mm 6 mps 744 mmHg 90%
    02:00 +10°C° 0.1 mm 7 mps 744 mmHg 89%
    03:00 +10°C° 0 mm 6 mps 744 mmHg 89%
    04:00 +9°C° 0 mm 6 mps 744 mmHg 88%
    05:00 +9°C° 0 mm 6 mps 744 mmHg 88%
    06:00 +9°C° 0.2 mm 6 mps 744 mmHg 88%
    07:00 +9°C° 0.2 mm 6 mps 744 mmHg 88%
    08:00 +9°C° 0.2 mm 6 mps 744 mmHg 88%
    09:00 +10°C° 0.4 mm 6 mps 745 mmHg 86%
    10:00 +10°C° 0.4 mm 6 mps 745 mmHg 83%
    11:00 +10°C° 0.4 mm 6 mps 745 mmHg 80%
    12:00 +10°C° 0.1 mm 6 mps 746 mmHg 75%
    13:00 +10°C° 0.1 mm 6 mps 746 mmHg 70%
    14:00 +10°C° 0.1 mm 6 mps 747 mmHg 65%
    15:00 +9°C° 0.1 mm 5 mps 747 mmHg 65%
    16:00 +8°C° 0.1 mm 4 mps 748 mmHg 66%
    17:00 +8°C° 0.1 mm 4 mps 748 mmHg 66%
    18:00 +7°C° 0 mm 3 mps 749 mmHg 70%
    19:00 +5°C° 0 mm 3 mps 750 mmHg 75%
    20:00 +4°C° 0 mm 3 mps 750 mmHg 80%
    21:00 +3°C° 0 mm 3 mps 751 mmHg 83%
    22:00 +3°C° 0 mm 2 mps 751 mmHg 87%
    23:00 +3°C° 0 mm 2 mps 752 mmHg 91%

    Day after tomorrow, 23 September, Monday

    Time Temperature Precipitation Wind Pressure Humidity
    00:00 +2°C° 0 mm 2 mps 752 mmHg 92%
    01:00 +2°C° 0 mm 2 mps 753 mmHg 94%
    02:00 +1°C° 0 mm 2 mps 753 mmHg 95%
    03:00 +2°C° 0 mm 1 mps 753 mmHg 95%
    04:00 +2°C° 0 mm 1 mps 754 mmHg 95%
    05:00 +1°C° 0 mm 1 mps 754 mmHg 95%
    06:00 +2°C° 0 mm 1 mps 754 mmHg 89%
    07:00 +4°C° 0 mm 1 mps 754 mmHg 83%
    08:00 +5°C° 0 mm 1 mps 754 mmHg 78%
    09:00 +6°C° 0 mm 1 mps 754 mmHg 70%
    10:00 +8°C° 0 mm 1 mps 754 mmHg 62%
    11:00 +9°C° 0 mm 2 mps 755 mmHg 55%
    12:00 +9°C° 0 mm 2 mps 754 mmHg 54%
    13:00 +9°C° 0 mm 2 mps 754 mmHg 52%
    14:00 +9°C° 0 mm 2 mps 754 mmHg 51%
    15:00 +10°C° 0 mm 1 mps 753 mmHg 54%
    16:00 +9°C° 0 mm 1 mps 753 mmHg 57%
    17:00 +9°C° 0 mm 1 mps 753 mmHg 60%
    18:00 +8°C° 0 mm 1 mps 753 mmHg 63%
    19:00 +6°C° 0 mm 1 mps 753 mmHg 66%
    20:00 +5°C° 0 mm 1 mps 753 mmHg 69%
    21:00 +5°C° 0 mm 1 mps 753 mmHg 71%
    22:00 +4°C° 0 mm 1 mps 753 mmHg 72%
    23:00 +4°C° 0 mm 1 mps 753 mmHg 73%

    24 September, Tuesday

    Time Temperature Precipitation Wind Pressure Humidity
    00:00 +4°C° 0 mm 1 mps 753 mmHg 74%
    01:00 +4°C° 0 mm 1 mps 753 mmHg 75%
    02:00 +3°C° 0 mm 1 mps 753 mmHg 75%
    03:00 +3°C° 0 mm 1 mps 753 mmHg 76%
    04:00 +3°C° 0 mm 1 mps 753 mmHg 78%
    05:00 +2°C° 0 mm 1 mps 753 mmHg 79%
    06:00 +4°C° 0 mm 1 mps 753 mmHg 75%
    07:00 +5°C° 0 mm 1 mps 753 mmHg 71%
    08:00 +6°C° 0 mm 1 mps 753 mmHg 66%
    09:00 +7°C° 0 mm 1 mps 753 mmHg 61%
    10:00 +9°C° 0 mm 1 mps 753 mmHg 56%
    11:00 +10°C° 0 mm 1 mps 753 mmHg 50%
    12:00 +10°C° 0 mm 1 mps 752 mmHg 49%
    13:00 +11°C° 0 mm 1 mps 752 mmHg 48%
    14:00 +11°C° 0 mm 1 mps 752 mmHg 47%
    15:00 +10°C° 0 mm 1 mps 752 mmHg 51%
    16:00 +9°C° 0 mm 1 mps 751 mmHg 56%
    17:00 +9°C° 0 mm 1 mps 751 mmHg 60%
    18:00 +8°C° 0 mm 1 mps 751 mmHg 62%
    19:00 +6°C° 0 mm 2 mps 751 mmHg 65%
    20:00 +5°C° 0 mm 2 mps 751 mmHg 67%
    21:00 +5°C° 0 mm 2 mps 751 mmHg 67%
    22:00 +5°C° 0 mm 1 mps 751 mmHg 67%
    23:00 +5°C° 0 mm 1 mps 751 mmHg 67%

    25 September, Wednesday

    Time Temperature Precipitation Wind Pressure Humidity
    00:00 +5°C° 0 mm 1 mps 751 mmHg 68%
    01:00 +5°C° 0 mm 1 mps 751 mmHg 69%
    02:00 +4°C° 0 mm 1 mps 751 mmHg 70%
    03:00 +4°C° 0 mm 1 mps 751 mmHg 72%
    04:00 +4°C° 0 mm 1 mps 751 mmHg 73%
    05:00 +3°C° 0 mm 1 mps 751 mmHg 74%
    06:00 +4°C° 0 mm 1 mps 751 mmHg 72%
    07:00 +5°C° 0 mm 1 mps 751 mmHg 69%
    08:00 +6°C° 0 mm 1 mps 751 mmHg 67%
    09:00 +7°C° 0 mm 1 mps 751 mmHg 61%
    10:00 +8°C° 0 mm 1 mps 751 mmHg 55%
    11:00 +9°C° 0 mm 2 mps 751 mmHg 49%
    12:00 +9°C° 0 mm 2 mps 751 mmHg 49%
    13:00 +9°C° 0 mm 2 mps 751 mmHg 49%
    14:00 +9°C° 0 mm 2 mps 751 mmHg 49%
    15:00 +9°C° 0 mm 2 mps 751 mmHg 52%
    16:00 +8°C° 0 mm 2 mps 751 mmHg 56%
    17:00 +7°C° 0 mm 2 mps 751 mmHg 60%
    18:00 +6°C° 0 mm 2 mps 751 mmHg 63%
    19:00 +5°C° 0 mm 2 mps 751 mmHg 66%
    20:00 +3°C° 0 mm 2 mps 751 mmHg 70%
    21:00 +4°C° 0 mm 1 mps 751 mmHg 70%
    22:00 +3°C° 0 mm 1 mps 752 mmHg 71%
    23:00 +3°C° 0 mm 1 mps 752 mmHg 72%

    26 September, Thursday

    Time Temperature Precipitation Wind Pressure Humidity
    00:00 +3°C° 0 mm 1 mps 752 mmHg 74%
    01:00 +2°C° 0 mm 1 mps 752 mmHg 76%
    02:00 +1°C° 0 mm 2 mps 752 mmHg 78%
    03:00 +1°C° 0 mm 2 mps 752 mmHg 80%
    04:00 -1°C° 0 mm 2 mps 752 mmHg 82%
    05:00 -1°C° 0 mm 2 mps 752 mmHg 85%
    06:00 +1°C° 0 mm 2 mps 752 mmHg 80%
    07:00 +1°C° 0 mm 3 mps 752 mmHg 75%
    08:00 +2°C° 0 mm 3 mps 752 mmHg 70%
    09:00 +4°C° 0 mm 3 mps 752 mmHg 64%
    10:00 +6°C° 0 mm 4 mps 752 mmHg 58%
    11:00 +7°C° 0 mm 4 mps 752 mmHg 52%
    12:00 +8°C° 0 mm 4 mps 752 mmHg 52%
    13:00 +8°C° 0 mm 4 mps 752 mmHg 51%
    14:00 +10°C° 0 mm 4 mps 752 mmHg 50%
    15:00 +9°C° 0 mm 3 mps 752 mmHg 54%
    16:00 +8°C° 0 mm 3 mps 751 mmHg 59%
    17:00 +8°C° 0 mm 2 mps 751 mmHg 64%
    18:00 +5°C° 0 mm 3 mps 751 mmHg 68%
    19:00 +4°C° 0 mm 3 mps 752 mmHg 73%
    20:00 +3°C° 0 mm 3 mps 752 mmHg 77%
    21:00 +2°C° 0 mm 3 mps 752 mmHg 78%
    22:00 +2°C° 0 mm 3 mps 752 mmHg 79%
    23:00 +1°C° 0 mm 3 mps 752 mmHg 80%
    Show more